Wind_Speed
16 14 14 14 14 14 14 13 13 13 13 13 13 13 13 13 14 14 14 14 13 12 12 12 12 13 13 13 12 12 12 12 12 12 12 12 11 12 11 11 11 11 10
16 15 14 14 14 13 13 13 13 14 14 13 14 14 14 14 14 14 14 14 13 13 13 13 13 13 13 13 12 12 12 12 13 13 13 13 12 12 12 12 11 12 11
17 16 15 14 14 14 14 14 14 14 14 14 14 15 15 15 14 14 14 14 14 13 13 13 13 13 13 14 13 13 13 13 14 14 14 14 14 12 12 12 12 12 11
18 17 16 16 15 15 15 15 15 15 14 14 15 16 16 15 15 15 15 14 14 14 14 14 13 13 14 14 14 14 14 14 14 14 15 15 15 13 12 12 12 13 13
18 18 19 18 16 15 16 16 16 16 15 15 15 16 16 15 15 15 15 15 14 14 15 15 15 14 14 15 15 15 15 15 15 15 15 15 15 15 13 13 13 14 14
18 19 19 19 19 17 17 17 17 17 17 16 16 16 16 15 15 16 16 16 15 15 16 15 16 15 15 16 16 15 15 15 15 16 15 15 16 16 15 15 14 15 15
19 19 19 18 19 19 18 17 17 17 18 17 17 17 16 15 16 16 16 16 16 17 16 16 17 16 16 17 17 16 16 16 16 16 16 16 16 16 16 15 15 16 16
18 18 18 18 19 19 18 18 18 18 18 18 18 17 16 16 17 17 17 18 18 19 18 17 17 17 17 17 17 17 17 16 17 17 17 16 16 16 16 16 16 17 17
18 18 18 18 18 18 18 19 19 19 19 19 18 17 17 17 17 18 18 18 19 19 18 17 17 18 18 17 17 17 17 17 17 17 17 17 17 16 16 17 18 18 18
19 19 19 19 19 19 18 19 19 19 18 18 18 18 17 18 19 19 18 19 19 20 19 19 19 19 18 18 18 18 18 18 18 18 18 18 18 18 18 18 18 18 19
20 20 20 19 19 19 19 19 19 18 18 18 18 18 19 20 20 19 19 20 20 20 20 20 20 20 19 20 20 20 20 20 20 19 19 19 19 19 19 19 19 20 20
21 21 20 20 19 20 20 19 19 19 18 18 18 19 20 20 20 20 20 20 21 21 21 22 21 20 20 21 20 20 20 20 20 20 20 20 20 20 20 20 20 21 21
21 22 22 21 20 20 20 20 20 19 19 19 19 19 20 20 20 21 21 21 21 22 22 22 22 21 21 21 21 21 21 21 21 21 21 20 21 21 21 20 21 21 21
22 23 22 22 21 21 21 21 20 20 20 20 20 20 21 21 21 22 22 21 22 22 23 23 22 22 22 22 22 22 22 22 22 22 22 21 21 21 22 21 21 21 21
23 23 23 22 22 22 22 21 20 20 20 21 21 21 22 22 22 22 22 22 23 23 23 24 23 22 22 22 22 22 22 22 22 22 23 22 23 22 22 22 22 22 22
25 24 24 23 23 23 22 21 21 22 22 22 23 23 23 23 23 23 23 23 23 24 24 24 24 23 23 23 22 22 22 22 23 23 23 23 23 22 22 22 22 22 22
25 24 24 23 23 23 23 23 23 23 23 24 24 24 24 24 24 24 24 24 24 24 25 24 23 23 22 21 22 22 23 23 23 23 23 23 22 22 22 22 22 22 22
27 26 25 24 24 24 23 23 24 24 24 24 25 26 25 25 25 25 25 25 25 25 24 24 23 22 21 22 22 23 23 23 23 23 23 23 23 22 22 22 22 22 23
29 29 28 26 25 25 25 25 25 25 25 26 26 27 26 26 26 26 26 26 25 25 24 23 23 23 23 22 23 24 24 24 24 24 24 24 23 23 23 23 23 23 24
29 29 28 27 26 26 26 26 26 27 26 27 27 27 26 26 27 26 26 25 25 25 24 25 24 24 24 24 24 24 24 25 25 25 25 24 24 23 23 23 24 23 23
29 29 29 28 27 27 27 28 28 29 29 27 28 28 27 27 26 26 26 26 26 26 26 26 26 25 25 25 25 25 25 25 25 25 25 24 24 24 24 23 24 23 23
30 30 29 29 28 28 29 29 29 29 29 28 28 28 28 27 27 26 26 26 26 26 26 26 26 26 26 26 25 25 25 25 25 26 25 25 25 24 24 24 23 23 23
31 30 29 28 29 29 29 29 29 28 28 28 28 28 28 28 28 27 27 27 27 27 27 26 26 26 26 26 26 25 25 25 25 25 26 25 25 25 24 24 24 23 23
31 31 29 29 30 29 30 30 29 28 27 27 28 28 27 28 28 27 27 27 27 27 27 27 27 27 27 25 25 25 25 26 26 26 26 25 25 25 25 24 23 23 23
31 31 31 30 30 29 29 29 29 28 28 27 28 28 29 29 28 28 28 28 27 27 27 27 27 27 27 27 27 26 25 26 26 26 26 26 26 25 24 24 23 23 23
30 30 30 30 30 30 29 29 29 29 29 28 28 28 29 29 29 29 28 28 27 27 27 27 26 27 27 27 27 26 26 26 26 26 26 26 26 25 24 24 24 23 23
Wind_Direction
287 285 290 295 298 306 308 309 309 312 312 313 314 314 313 314 314 316 317 315 313 311 307 308 311 311 311 312 313 312 312 311 310 310 307 301 303 303 302 301 296 290 282
285 287 290 293 295 301 304 307 307 309 310 311 314 314 314 313 313 313 313 314 313 310 308 305 308 310 310 310 309 307 308 308 307 306 306 302 299 299 297 296 294 289 282
280 280 285 291 294 299 303 304 306 306 308 310 310 313 315 314 314 311 310 310 311 310 308 307 307 308 309 307 308 305 303 303 304 304 304 302 297 295 295 292 288 287 283
276 277 280 285 291 295 297 301 304 306 306 308 308 310 311 313 311 311 311 313 311 311 310 307 306 305 307 307 308 307 301 299 301 304 302 301 298 297 295 293 290 286 283
274 276 280 283 286 289 293 297 301 304 305 306 308 309 309 308 308 310 310 313 313 311 311 307 305 304 307 309 308 307 305 301 300 303 304 301 298 294 292 290 288 285 282
272 274 276 279 283 285 290 293 295 298 301 304 305 305 305 306 306 309 310 310 310 310 310 307 305 304 305 308 310 308 305 302 301 304 304 304 300 295 291 288 287 285 285
273 274 276 278 282 284 286 289 289 292 296 299 302 302 302 305 307 308 310 309 308 307 306 305 305 302 303 306 307 306 306 303 303 304 304 303 300 296 292 290 289 286 285
273 275 276 277 280 283 286 287 287 289 292 295 299 299 300 304 308 308 307 308 307 308 307 304 303 303 304 306 306 304 304 305 303 302 303 303 301 298 294 291 291 289 286
273 276 278 279 281 282 284 286 286 286 290 291 294 297 300 303 306 307 308 309 308 308 306 304 304 303 303 303 305 304 304 305 305 304 303 301 299 296 295 291 290 290 288
276 277 278 279 280 280 281 285 286 287 289 289 291 296 299 300 303 305 306 309 309 307 304 303 303 302 302 302 303 303 304 305 305 303 301 298 296 295 293 292 290 290 289
277 276 277 278 277 278 279 282 285 287 289 290 291 296 298 298 300 302 303 305 307 308 306 304 301 300 301 301 300 301 301 301 302 301 300 297 296 295 295 292 290 289 289
275 275 278 278 276 276 276 279 282 286 288 288 290 292 296 298 299 299 301 303 305 306 307 305 301 299 299 300 300 300 300 300 300 300 299 297 296 295 294 293 293 291 289
275 275 278 279 278 277 278 280 280 283 286 287 289 292 296 299 300 300 300 302 304 305 306 306 302 299 298 299 299 299 300 300 299 299 298 297 297 295 293 292 293 292 289
274 273 275 276 277 276 276 277 277 281 285 286 289 292 296 298 300 299 298 300 301 302 303 304 303 299 297 299 299 299 299 299 299 299 298 298 297 297 295 293 293 293 291
270 271 272 272 273 273 274 275 277 280 284 286 288 291 293 296 298 298 296 297 299 300 301 302 301 298 297 298 299 298 299 299 301 300 298 297 297 298 296 294 293 293 291
272 273 273 274 274 272 271 272 275 280 283 284 288 290 292 295 296 295 295 296 297 298 300 300 299 297 298 298 298 299 300 301 302 301 298 297 296 296 296 295 293 292 292
275 273 272 273 273 271 270 272 275 280 282 283 286 288 290 292 293 293 293 294 295 296 298 298 297 296 296 297 297 298 301 302 302 301 300 298 297 297 296 296 293 293 292
272 271 270 274 274 271 271 273 276 279 281 284 285 288 290 291 291 291 291 293 293 294 296 295 295 294 294 294 295 297 300 302 302 302 302 301 300 296 296 295 295 295 293
269 270 268 271 271 271 271 273 275 277 281 283 284 286 288 288 290 291 291 292 292 292 292 293 293 291 292 292 294 295 299 300 300 301 302 302 301 297 295 295 294 294 294
268 268 269 269 270 271 271 273 275 276 280 282 282 283 286 287 289 289 290 291 291 290 290 292 292 292 292 292 292 293 296 299 300 300 302 303 302 299 296 295 294 293 292
267 266 267 268 270 271 272 273 274 276 280 281 281 282 285 287 289 289 290 290 290 289 290 290 289 290 291 291 292 293 295 297 299 300 301 302 301 299 298 297 295 294 294
265 265 266 267 269 270 271 272 272 275 278 279 280 281 284 287 288 289 289 289 289 289 290 289 288 289 290 290 291 291 293 295 298 299 298 299 300 300 300 299 298 296 295
264 266 267 267 268 270 271 270 272 274 275 277 279 281 283 285 287 288 288 287 287 288 288 288 288 289 289 290 290 290 292 294 297 300 300 299 299 299 298 297 297 296 296
264 265 265 266 268 270 270 270 271 272 273 276 278 280 283 284 285 288 289 288 287 287 287 287 287 288 288 288 288 289 291 294 297 299 299 299 299 298 297 296 296 296 297
264 262 264 265 268 269 269 270 271 271 271 272 276 278 280 282 284 284 286 287 288 288 288 287 288 288 288 287 287 287 290 293 295 296 297 298 298 298 296 295 295 296 296
265 265 265 265 266 268 269 269 270 271 272 274 275 277 278 281 282 283 284 284 285 287 286 286 286 287 288 288 288 289 290 291 292 293 295 295 296 297 295 295 295 296 296
Height
5885 5884 5884 5884 5883 5883 5882 5882 5881 5880 5878 5877 5876 5875 5873 5872 5871 5870 5868 5867 5866 5865 5864 5863 5862 5862 5861 5860 5858 5857 5856 5855 5854 5853 5853 5852 5851 5850 5849 5848 5848 5847 5847
5883 5882 5883 5882 5882 5881 5880 5879 5878 5877 5876 5875 5874 5873 5871 5870 5869 5867 5866 5865 5864 5863 5862 5861 5860 5860 5859 5857 5856 5855 5854 5853 5852 5851 5850 5849 5849 5848 5846 5846 5845 5845 5844
5880 5880 5880 5880 5879 5879 5878 5877 5876 5875 5874 5873 5872 5871 5869 5868 5867 5865 5864 5863 5862 5861 5860 5859 5858 5857 5856 5855 5854 5853 5851 5851 5849 5848 5847 5846 5845 5845 5844 5843 5843 5842 5842
5878 5877 5877 5877 5877 5876 5875 5874 5874 5873 5872 5871 5869 5868 5867 5865 5864 5863 5862 5860 5859 5859 5858 5857 5855 5855 5854 5852 5851 5850 5848 5847 5846 5845 5843 5842 5841 5841 5841 5840 5840 5839 5839
5875 5874 5874 5873 5873 5873 5873 5872 5871 5870 5869 5868 5867 5865 5864 5863 5862 5861 5860 5858 5857 5856 5855 5854 5853 5852 5851 5850 5848 5847 5845 5844 5843 5842 5840 5839 5838 5837 5837 5837 5837 5836 5835
5871 5870 5870 5870 5869 5869 5869 5869 5868 5867 5867 5866 5864 5863 5862 5861 5860 5858 5857 5856 5855 5854 5853 5852 5851 5850 5848 5847 5845 5844 5842 5841 5839 5838 5837 5835 5834 5833 5833 5833 5832 5832 5832
5867 5867 5866 5866 5866 5865 5865 5865 5865 5864 5864 5863 5861 5860 5859 5858 5857 5856 5855 5854 5853 5851 5850 5849 5848 5847 5846 5844 5842 5841 5839 5838 5836 5835 5833 5831 5830 5829 5828 5828 5828 5828 5828
5863 5863 5863 5862 5862 5861 5861 5861 5861 5861 5860 5860 5858 5857 5856 5855 5854 5853 5852 5851 5849 5848 5846 5846 5845 5844 5842 5841 5839 5837 5836 5834 5833 5831 5829 5828 5826 5825 5824 5824 5823 5823 5823
5859 5859 5859 5859 5858 5858 5858 5858 5857 5857 5857 5856 5855 5854 5853 5852 5851 5850 5849 5848 5846 5845 5843 5842 5841 5840 5838 5837 5835 5834 5832 5831 5829 5827 5825 5824 5822 5821 5820 5820 5819 5819 5818
5855 5855 5854 5855 5855 5855 5854 5854 5853 5853 5853 5852 5852 5850 5850 5849 5848 5847 5846 5845 5843 5841 5840 5839 5837 5836 5834 5833 5831 5830 5828 5827 5825 5823 5821 5820 5818 5817 5816 5815 5814 5813 5813
5851 5850 5850 5850 5850 5850 5850 5850 5849 5849 5849 5848 5848 5847 5846 5845 5844 5843 5842 5841 5839 5838 5836 5835 5833 5831 5830 5828 5827 5826 5824 5822 5821 5819 5817 5815 5814 5813 5811 5810 5809 5808 5807
5847 5845 5845 5845 5846 5845 5845 5845 5845 5845 5845 5844 5844 5843 5842 5841 5840 5839 5838 5836 5835 5833 5831 5830 5828 5827 5825 5824 5822 5821 5819 5818 5816 5814 5812 5811 5809 5808 5806 5805 5804 5803 5801
5842 5841 5841 5841 5841 5841 5840 5840 5841 5841 5840 5840 5840 5839 5838 5836 5835 5834 5833 5832 5830 5828 5827 5825 5823 5822 5820 5819 5817 5816 5814 5813 5811 5809 5807 5806 5804 5802 5801 5800 5798 5797 5795
5837 5836 5836 5836 5836 5836 5836 5836 5836 5836 5836 5835 5835 5834 5833 5832 5831 5829 5828 5827 5825 5823 5822 5820 5818 5816 5815 5814 5812 5811 5809 5807 5806 5804 5802 5800 5799 5797 5796 5794 5793 5791 5790
5830 5830 5831 5831 5831 5831 5831 5831 5831 5831 5831 5831 5830 5829 5828 5827 5826 5824 5823 5821 5820 5818 5817 5815 5813 5811 5810 5808 5807 5805 5804 5802 5800 5799 5797 5795 5793 5792 5790 5788 5787 5786 5784
5824 5825 5825 5825 5825 5825 5825 5826 5826 5826 5826 5825 5824 5824 5823 5821 5820 5819 5817 5816 5815 5813 5811 5809 5808 5806 5804 5803 5801 5800 5798 5797 5795 5793 5791 5789 5788 5786 5784 5783 5781 5780 5778
5818 5818 5818 5819 5819 5820 5820 5820 5820 5820 5820 5820 5819 5818 5817 5816 5814 5813 5812 5810 5809 5807 5806 5804 5802 5801 5799 5798 5796 5795 5793 5791 5789 5787 5785 5783 5782 5780 5779 5777 5775 5774 5772
5812 5812 5812 5813 5814 5814 5814 5814 5814 5814 5814 5813 5812 5811 5811 5810 5808 5807 5806 5804 5803 5801 5800 5798 5797 5795 5794 5792 5791 5789 5787 5786 5784 5782 5780 5778 5776 5774 5773 5771 5769 5768 5766
5805 5804 5805 5807 5808 5808 5808 5808 5808 5808 5807 5807 5806 5805 5804 5803 5802 5801 5799 5798 5797 5795 5794 5792 5791 5790 5788 5787 5785 5784 5782 5780 5778 5776 5774 5772 5770 5768 5766 5765 5763 5762 5760
5798 5798 5798 5800 5801 5801 5801 5801 5802 5801 5801 5800 5799 5798 5797 5797 5796 5794 5793 5792 5790 5789 5788 5787 5785 5784 5783 5781 5779 5778 5776 5775 5773 5770 5768 5766 5764 5762 5760 5758 5757 5755 5754
5790 5791 5792 5793 5794 5794 5794 5795 5795 5794 5794 5793 5792 5792 5791 5790 5789 5788 5786 5785 5784 5783 5781 5780 5779 5777 5776 5774 5773 5772 5770 5768 5766 5764 5762 5760 5757 5755 5753 5752 5750 5748 5747
5783 5783 5785 5786 5786 5787 5787 5787 5787 5787 5787 5786 5785 5784 5784 5783 5782 5781 5780 5778 5777 5776 5774 5773 5772 5771 5769 5768 5766 5765 5764 5762 5760 5758 5756 5753 5751 5749 5747 5745 5743 5741 5740
5775 5775 5776 5778 5779 5779 5779 5779 5779 5779 5779 5778 5778 5777 5776 5776 5775 5774 5772 5771 5770 5769 5767 5766 5765 5764 5762 5761 5760 5758 5756 5755 5753 5751 5749 5747 5745 5743 5741 5739 5737 5735 5733
5766 5767 5768 5769 5770 5771 5771 5771 5771 5771 5770 5770 5770 5769 5769 5768 5767 5766 5765 5763 5762 5761 5760 5759 5758 5757 5755 5754 5752 5751 5749 5748 5746 5745 5743 5740 5738 5736 5735 5733 5731 5729 5727
5757 5758 5759 5761 5762 5762 5762 5762 5763 5762 5762 5762 5762 5762 5761 5760 5759 5758 5757 5756 5755 5753 5752 5751 5750 5749 5747 5746 5745 5743 5742 5741 5739 5738 5736 5734 5732 5730 5728 5726 5724 5722 5720
5749 5750 5751 5752 5753 5753 5754 5754 5754 5754 5754 5754 5754 5753 5753 5752 5751 5750 5749 5748 5747 5746 5744 5743 5742 5741 5740 5738 5737 5736 5735 5733 5732 5731 5729 5727 5725 5724 5722 5720 5718 5716 5714